[[{"header":{"parameterUnit":"m.s-1","parameterCategory":1,"la1":30.2991,"la2":30.254,"lo1":-89.0895,"lo2":-89.0444,"dy":0.0017,"dx":0.0017,"nx":28,"ny":28,"refTime":"2023-08-25T09:00:00:Z","depth":0,"parameterNumber":2,"parameterNumberName":"U-component_of_WINDS"},"data":[0,0,0,0,0,0,0,0,0,0,0,0,0,0,0,0,0,0,0,0,0,0,0,0,0,0,0,0,0,0,0,0,0,0,0,0,0,0,0,0,0,0,0,0,0,0,0,0,0,0,0,0,0,0,0,0,0,0,1.5924,1.5926,0,1.6119,1.6121,1.6124,1.6159,1.6158,1.6156,1.6155,1.6356,1.6363,1.637,0,0,0,0,0,0,0,0,0,0,0,0,0,1.5583,1.559,1.5924,1.5927,1.5929,1.6119,1.6122,1.6124,1.616,1.6158,1.6156,1.6154,1.6354,1.6362,1.637,0,0,0,0,0,0,0,0,0,0,0,0,0,1.575,1.5591,1.5924,1.597,1.5976,1.6118,1.6122,1.6125,1.616,1.6158,1.6155,1.6153,1.6351,1.6361,1.6372,1.6483,0,0,1.6403,1.6407,0,0,0,0,0,0,0,0,1.5741,1.5763,1.596,1.5967,1.5974,1.6112,1.6075,1.6245,1.6161,1.609,1.6155,1.6152,1.6277,1.6293,1.6335,1.6492,1.6501,1.6404,1.641,1.6415,1.6417,0,0,0,0,0,0,0,1.5729,1.5755,1.6001,1.5963,1.5971,1.5981,1.6002,1.6108,1.6195,1.6096,1.6099,1.6122,1.628,1.6325,1.634,1.6504,1.6404,1.6413,1.6419,1.6423,1.6761,1.6764,0,0,0,0,0,0,1.5709,1.5745,1.5995,1.6007,1.5849,1.5989,1.6012,1.607,1.6194,1.621,1.6123,1.6122,1.6309,1.6328,1.6348,1.6485,1.6414,1.6424,1.643,1.6758,1.6761,1.6765,0,0,0,0,0,0,1.5702,1.5731,1.5987,1.5877,1.591,1.5997,1.6062,1.6075,1.612,1.6214,1.623,1.6153,1.6308,1.6333,1.6449,1.6492,1.6429,1.6438,1.6755,1.6759,1.6763,1.676,0,0,0,0,0,0,1.5692,1.5728,1.5771,1.5878,1.5916,1.6084,1.6065,1.6081,1.6138,1.6138,1.6247,1.6262,1.6308,1.6433,1.6459,1.6505,1.6446,1.6751,1.6757,1.6762,1.6757,1.6764,1.677,0,0,0,0,0,1.568,1.5763,1.5773,1.5803,1.5971,1.6087,1.6109,1.6159,1.6141,1.6185,1.6245,1.6259,1.6484,1.6444,1.6474,1.6524,1.6749,1.6755,1.6761,1.6754,1.6763,1.677,0,0,0,0,0,0,1.5661,1.5778,1.579,1.5911,1.5989,1.6093,1.6149,1.6167,1.6252,1.6249,1.6309,1.6333,1.6444,1.6496,1.6451,1.6638,1.6615,1.6627,1.6599,1.6608,1.6615,1.6599,1.6455,0,0,0,0,0,1.567,1.5754,1.5853,1.595,1.5988,1.6062,1.6114,1.6146,1.6229,1.6262,1.6331,1.6412,1.65,1.6558,1.6645,1.6765,1.6789,1.6814,1.6821,1.6826,1.6835,1.6901,1.6913,1.6785,1.6785,1.6785,0,0,1.5691,1.5766,1.5815,1.5948,1.6011,1.6097,1.6089,1.618,1.6244,1.6277,1.6389,1.6442,1.6536,1.6654,1.6709,1.6701,1.6876,1.6834,1.6837,1.6844,1.6909,1.6921,1.6932,1.679,1.6789,1.6788,0,0,1.5773,1.5838,1.5925,1.599,1.6086,1.6135,1.6156,1.6258,1.6294,1.6408,1.6433,1.6511,1.6663,1.6728,1.6781,1.6887,1.6902,1.6914,1.6947,1.7011,1.7021,1.703,1.7066,1.7079,1.6923,1.6923,1.6923,0,1.5787,1.5916,1.5968,1.6058,1.6115,1.6148,1.6236,1.6296,1.6416,1.6455,1.6443,1.6634,1.67,1.6832,1.6858,1.6901,1.6926,1.6901,1.7015,1.7025,1.7034,1.707,1.7083,1.6924,1.6924,1.6924,1.6924,0,1.5927,1.6017,1.6076,1.619,1.6254,1.6342,1.6408,1.6467,1.6493,1.6543,1.6658,1.6738,1.6841,1.6876,1.6903,1.7012,1.7004,1.7003,1.6981,1.7046,1.708,1.7094,1.6925,1.6925,1.6925,1.6924,0,0,1.6001,1.6143,1.6163,1.6215,1.6324,1.6394,1.6484,1.6584,1.6633,1.6715,1.6791,1.6919,1.6919,1.6979,1.7014,1.7071,1.7147,1.7063,1.7066,1.7074,1.7271,1.7269,1.7283,1.7159,1.7161,1.7164,1.7262,0,1.6094,1.6255,1.6304,1.6439,1.6521,1.6554,1.6633,1.6708,1.6757,1.6834,1.689,1.6978,1.6972,1.7008,1.7066,1.7126,1.7187,1.712,1.7229,1.7233,1.7203,1.7302,1.73,1.7389,1.7276,1.7278,1.728,0,1.6223,1.6306,1.6449,1.6546,1.6583,1.6652,1.6747,1.6821,1.6908,1.6939,1.7006,1.7037,1.7132,1.7106,1.7237,1.719,1.7239,1.7275,1.728,1.729,1.7259,1.7313,1.7419,1.7431,1.7302,1.73,1.7298,0,1.626,1.6408,1.6512,1.6556,1.6673,1.672,1.6772,1.6855,1.6912,1.6996,1.7033,1.7127,1.7178,1.725,1.7305,1.7281,1.7432,1.741,1.746,1.7458,1.7489,1.7485,1.7602,1.7523,1.7523,1.7522,1.7522,0,1.6357,1.6442,1.653,1.6593,1.669,1.6747,1.6841,1.6894,1.6968,1.7043,1.7078,1.7147,1.7217,1.7295,1.7339,1.744,1.7464,1.7492,1.7502,1.7488,1.7484,1.7519,1.7513,1.7526,1.7525,1.7524,1.7524,0,1.6413,1.6476,1.6591,1.6692,1.672,1.6786,1.6873,1.6936,1.6987,1.7081,1.7106,1.7186,1.728,1.7343,1.7464,1.7493,1.7603,1.7613,1.7573,1.7578,1.7623,1.7617,1.7764,1.7785,1.7694,1.7694,1.7695,0,1.647,1.6536,1.6645,1.6697,1.6748,1.6832,1.689,1.6949,1.7007,1.711,1.7161,1.7257,1.7337,1.7486,1.7555,1.7647,1.7659,1.7704,1.7673,1.7655,1.7657,1.7651,1.7658,1.7708,1.7709,1.7709,1.771,0,1.6563,1.6591,1.6673,1.6765,1.6833,1.6909,1.6985,1.7026,1.7098,1.7162,1.7258,1.732,1.7443,1.7538,1.7637,1.769,1.7712,1.7719,1.7735,1.772,1.7693,1.7706,1.7584,1.7715,1.7715,1.7714,1.7714,1.7714,1.6621,1.668,1.6766,1.6856,1.6919,1.6989,1.7053,1.7111,1.7193,1.7296,1.7327,1.7427,1.7511,1.7646,1.7701,1.778,1.7775,1.7799,1.7804,1.7809,1.7808,1.7682,1.7798,1.7798,1.7798,1.7798,1.7798,0,1.6714,1.6771,1.6853,1.6957,1.7028,1.7043,1.7128,1.7185,1.7273,1.7349,1.7427,1.7537,1.763,1.7706,1.7801,1.7849,1.7862,1.7872,1.7868,1.788,1.7807,1.7783,1.786,1.786,1.786,1.786,1.786,1.786,1.6771,1.6872,1.691,1.7043,1.71,1.7197,1.7244,1.7309,1.737,1.7491,1.7568,1.7617,1.7693,1.7794,1.7879,1.7899,1.7932,1.794,1.7962,1.7892,1.7885,1.7878,1.7856,1.7947,1.7947,1.8028,1.8028,1.8029]},{"header":{"parameterUnit":"m.s-1","parameterCategory":1,"la1":30.2991,"la2":30.254,"lo1":-89.0895,"lo2":-89.0444,"dy":0.0017,"dx":0.0017,"nx":28,"ny":28,"refTime":"2023-08-25T09:00:00:Z","depth":0,"parameterNumber":3,"parameterNumberName":"V-component_of_WINDS"},"data":[0,0,0,0,0,0,0,0,0,0,0,0,0,0,0,0,0,0,0,0,0,0,0,0,0,0,0,0,0,0,0,0,0,0,0,0,0,0,0,0,0,0,0,0,0,0,0,0,0,0,0,0,0,0,0,0,0,0,3.1556,3.1555,0,3.1513,3.1513,3.1512,3.144,3.1438,3.1437,3.1436,3.1391,3.1391,3.1391,0,0,0,0,0,0,0,0,0,0,0,0,0,3.1572,3.1572,3.1556,3.1555,3.1555,3.1513,3.1513,3.1512,3.144,3.1438,3.1437,3.1435,3.1391,3.1391,3.1391,0,0,0,0,0,0,0,0,0,0,0,0,0,3.1551,3.1572,3.1556,3.1514,3.151,3.1513,3.1513,3.1512,3.144,3.1438,3.1436,3.1434,3.1391,3.1391,3.1391,3.1432,0,0,3.1391,3.1391,0,0,0,0,0,0,0,0,3.1552,3.155,3.1521,3.1517,3.1512,3.148,3.1502,3.1485,3.1441,3.1467,3.1436,3.1433,3.1422,3.1419,3.1416,3.143,3.1428,3.1391,3.1391,3.1391,3.1391,0,0,0,0,0,0,0,3.1554,3.1552,3.1539,3.152,3.1515,3.1496,3.1491,3.1498,3.1456,3.1464,3.1459,3.1455,3.1419,3.1416,3.1414,3.1427,3.1391,3.1391,3.1391,3.1391,3.1469,3.1471,0,0,0,0,0,0,3.1562,3.1553,3.154,3.1538,3.1528,3.1497,3.1492,3.1492,3.1456,3.1448,3.1457,3.1452,3.1417,3.1414,3.1412,3.1455,3.1391,3.1391,3.1391,3.1467,3.1469,3.1471,0,0,0,0,0,0,3.1562,3.1561,3.1542,3.1544,3.154,3.1499,3.1501,3.1492,3.1489,3.145,3.1442,3.1461,3.1415,3.1412,3.1427,3.1452,3.1391,3.1391,3.1464,3.1467,3.147,3.1542,0,0,0,0,0,0,3.1563,3.1562,3.1578,3.1545,3.154,3.1558,3.1502,3.1493,3.1489,3.1482,3.1452,3.1445,3.1413,3.1427,3.1427,3.1451,3.1392,3.1462,3.1466,3.1469,3.1537,3.1547,3.1556,0,0,0,0,0,3.1564,3.16,3.1579,3.1578,3.156,3.156,3.1557,3.152,3.1492,3.1507,3.1481,3.1446,3.145,3.1429,3.1428,3.1453,3.146,3.1465,3.1469,3.1533,3.1545,3.1556,0,0,0,0,0,0,3.1638,3.1595,3.1571,3.1598,3.1583,3.1548,3.1566,3.1535,3.1527,3.1521,3.1475,3.1468,3.1488,3.1473,3.145,3.1489,3.1449,3.1454,3.1498,3.151,3.1519,3.1521,3.1392,0,0,0,0,0,3.1657,3.1662,3.1624,3.1652,3.1645,3.1607,3.1606,3.1578,3.1561,3.1554,3.153,3.1513,3.151,3.151,3.1505,3.1535,3.1526,3.1552,3.1561,3.1569,3.1573,3.1584,3.1594,3.1486,3.1486,3.1486,0,0,3.1697,3.1675,3.168,3.1666,3.1651,3.1655,3.1602,3.161,3.1612,3.1555,3.1566,3.1548,3.1527,3.1548,3.1557,3.1536,3.16,3.1575,3.1581,3.158,3.1589,3.16,3.1609,3.1489,3.1489,3.1488,0,0,3.1771,3.1756,3.1776,3.1762,3.1739,3.1713,3.1718,3.1687,3.1672,3.1684,3.164,3.1641,3.1639,3.1624,3.1616,3.1683,3.1649,3.1683,3.173,3.1742,3.175,3.1758,3.1778,3.1787,3.1687,3.1688,3.1688,0,3.1824,3.1829,3.179,3.1799,3.1793,3.1742,3.176,3.1748,3.1726,3.1722,3.1699,3.1692,3.1674,3.169,3.1706,3.1702,3.1704,3.1685,3.1753,3.1759,3.1765,3.1784,3.1793,3.1692,3.1691,3.1691,3.169,0,3.1893,3.1897,3.1915,3.1894,3.189,3.1904,3.1865,3.1866,3.1839,3.1815,3.1825,3.1802,3.179,3.1792,3.1766,3.1803,3.179,3.1761,3.172,3.178,3.1797,3.1805,3.1697,3.1696,3.1695,3.1694,0,0,3.2012,3.1968,3.1975,3.1963,3.1934,3.1936,3.1947,3.1936,3.1935,3.1922,3.1927,3.1925,3.1897,3.1888,3.186,3.187,3.192,3.1838,3.1837,3.1852,3.1956,3.1977,3.1986,3.1899,3.19,3.1901,3.1957,0,3.2077,3.2093,3.2057,3.2082,3.2083,3.2034,3.2043,3.2025,3.2003,3.2,3.1975,3.1973,3.1937,3.1931,3.1939,3.1913,3.194,3.1908,3.1901,3.1901,3.1905,3.1995,3.2018,3.2072,3.1963,3.1965,3.1965,0,3.2157,3.2146,3.217,3.2137,3.2136,3.2145,3.213,3.2129,3.2107,3.209,3.208,3.2046,3.2052,3.2014,3.202,3.1999,3.1994,3.198,3.1981,3.1977,3.1935,3.1991,3.2088,3.2095,3.1976,3.1975,3.1975,0,3.2237,3.2229,3.2241,3.2233,3.2196,3.2203,3.2188,3.2164,3.2159,3.2146,3.2141,3.2129,3.2122,3.2113,3.2076,3.2052,3.2085,3.2045,3.2068,3.2069,3.2076,3.2076,3.2171,3.2078,3.2078,3.2077,3.2077,0,3.2312,3.2328,3.2276,3.2284,3.2299,3.2257,3.2274,3.2253,3.2232,3.2234,3.2191,3.2193,3.2146,3.2142,3.2113,3.2121,3.2119,3.2103,3.2095,3.2105,3.2107,3.21,3.2094,3.2079,3.2079,3.2079,3.2078,0,3.2404,3.237,3.238,3.2344,3.2335,3.2348,3.2316,3.232,3.2295,3.2297,3.2295,3.2255,3.2248,3.2211,3.2195,3.2176,3.2192,3.2178,3.22,3.2194,3.2218,3.2216,3.2311,3.232,3.2223,3.2224,3.2225,0,3.2453,3.2464,3.2429,3.2427,3.2413,3.2411,3.2405,3.2364,3.2359,3.2333,3.234,3.233,3.2319,3.231,3.2278,3.2265,3.2248,3.2283,3.2246,3.2255,3.2245,3.2244,3.2243,3.229,3.2291,3.2292,3.2293,0,3.2543,3.2525,3.2518,3.2505,3.2499,3.2487,3.2472,3.2472,3.2426,3.2422,3.2415,3.2406,3.239,3.2379,3.236,3.2343,3.2309,3.2305,3.2309,3.2319,3.233,3.2321,3.2218,3.2302,3.2301,3.2301,3.23,3.23,3.2612,3.2619,3.2594,3.2587,3.2572,3.2558,3.256,3.2534,3.2527,3.2511,3.2487,3.2481,3.2457,3.2428,3.2413,3.2407,3.2389,3.2396,3.2397,3.2399,3.2403,3.2333,3.2404,3.2404,3.2404,3.2403,3.2403,0,3.2697,3.2679,3.2673,3.2653,3.2647,3.2617,3.2598,3.2595,3.2591,3.2571,3.2561,3.2551,3.254,3.2507,3.2492,3.2493,3.2477,3.249,3.2488,3.2484,3.2422,3.2418,3.2503,3.2503,3.2503,3.2503,3.2503,3.2503,3.2741,3.2749,3.2728,3.2727,3.2708,3.2703,3.2694,3.2681,3.2664,3.2655,3.2645,3.2624,3.2598,3.2581,3.2568,3.2559,3.2554,3.2572,3.2557,3.2499,3.2489,3.248,3.2476,3.2572,3.2572,3.2619,3.262,3.262]}]]